VOYAGER:2:PRINTED,ON:,27-APR-02:13:57:05:GROUP32
START_TIME,STOP_TIME,SECTOR,SCAN_DIR,E44FLUX,E44UNC,E45FLUX,E45UNC,E37FLUX,E37UNC,P31FLUX,P31UNC
1989-08-19T19:55:59.910 ,1989-08-19 19:56:23.910 ,9,0,48.6,1.78,0.445,0.119,1.064E-02,1.064E-02,2.775E-02,2.311E-03
1989-08-19T19:56:23.910 ,1989-08-19 19:56:47.910 ,9,0,14.2,0.968,0.223,8.415E-02,1.064E-02,1.064E-02,3.180E-02,2.474E-03
1989-08-19T19:56:47.910 ,1989-08-19 19:56:54.280 ,7,-1,15.8,2.28,0.000E+00,0.000E+00,-1.00,-1.00,2.505E-02,4.913E-03
1989-08-19T19:56:55.090 ,1989-08-19 19:57:42.280 ,6,-1,12.9,0.668,0.389,8.288E-02,0.000E+00,0.000E+00,2.972E-02,1.732E-03
1989-08-19T19:57:43.090 ,1989-08-19 19:58:30.280 ,5,-1,12.4,0.646,0.301,7.288E-02,0.000E+00,0.000E+00,3.240E-02,1.797E-03
1989-08-19T19:58:31.090 ,1989-08-19 19:59:18.280 ,4,-1,12.5,0.649,0.247,6.612E-02,0.000E+00,0.000E+00,2.796E-02,1.713E-03
1989-08-19T19:59:19.090 ,1989-08-19 19:00:06.280 ,3,-1,12.6,0.650,0.389,8.288E-02,0.000E+00,0.000E+00,2.932E-02,1.736E-03
1989-08-19T20:00:07.090 ,1989-08-19 20:00:54.280 ,2,-1,12.3,0.644,0.194,5.861E-02,1.064E-02,1.064E-02,2.901E-02,1.681E-03
1989-08-19T20:00:54.280 ,1989-08-19 20:01:42.660 ,1,-1,12.4,0.809,0.358,8.435E-02,1.064E-02,1.064E-02,3.165E-02,2.191E-03
1989-08-19T20:01:43.090 ,1989-08-19 20:02:30.280 ,1,1,12.0,0.638,0.230,6.374E-02,0.000E+00,0.000E+00,3.050E-02,1.740E-03
1989-08-19T20:02:31.090 ,1989-08-19 20:03:18.280 ,2,1,13.3,0.669,0.212,6.122E-02,1.064E-02,1.064E-02,3.297E-02,1.829E-03
1989-08-19T20:03:19.090 ,1989-08-19 20:04:06.280 ,3,1,13.4,0.672,0.566,0.100,0.000E+00,0.000E+00,3.190E-02,1.779E-03
1989-08-19T20:04:07.090 ,1989-08-19 20:04:54.280 ,4,1,12.9,0.669,0.301,7.288E-02,0.000E+00,0.000E+00,3.300E-02,1.810E-03
1989-08-19T20:04:55.090 ,1989-08-19 20:05:42.280 ,5,1,12.0,0.638,0.336,7.704E-02,0.000E+00,0.000E+00,2.678E-02,1.644E-03
1989-08-19T20:05:43.090 ,1989-08-19 20:06:30.280 ,6,1,11.8,0.631,0.318,7.497E-02,3.192E-02,1.843E-02,2.999E-02,1.710E-03
1989-08-19T20:06:31.090 ,1989-08-19 20:07:18.280 ,7,1,13.2,0.668,0.460,9.013E-02,2.128E-02,1.505E-02,3.310E-02,1.815E-03
1989-08-19T20:07:19.090 ,1989-08-19 20:08:23.840 ,8,1,12.5,0.561,0.278,6.073E-02,2.128E-02,1.505E-02,3.030E-02,1.487E-03
1989-08-19T20:08:23.910 ,1989-08-19 20:08:54.280 ,8,-1,13.3,0.838,0.398,0.103,0.000E+00,0.000E+00,3.051E-02,2.212E-03
1989-08-19T20:08:55.090 ,1989-08-19 20:09:42.280 ,7,-1,13.3,0.669,0.424,8.658E-02,0.000E+00,0.000E+00,2.981E-02,1.723E-03
1989-08-19T20:09:43.090 ,1989-08-19 20:10:30.280 ,6,-1,13.2,0.667,0.283,7.071E-02,1.064E-02,1.064E-02,3.214E-02,1.773E-03
1989-08-19T20:10:31.090 ,1989-08-19 20:11:18.280 ,5,-1,12.7,0.655,0.389,8.288E-02,0.000E+00,0.000E+00,2.781E-02,1.664E-03
1989-08-19T20:11:19.090 ,1989-08-19 20:12:06.280 ,4,-1,11.5,0.632,0.407,8.475E-02,2.128E-02,1.505E-02,3.118E-02,1.793E-03
1989-08-19T20:12:07.090 ,1989-08-19 20:12:54.280 ,3,-1,11.9,0.632,0.442,8.839E-02,2.128E-02,1.505E-02,3.195E-02,1.767E-03
1989-08-19T20:12:55.090 ,1989-08-19 20:13:42.280 ,2,-1,11.8,0.631,0.283,7.071E-02,1.064E-02,1.064E-02,3.150E-02,1.772E-03
1989-08-19T20:13:42.280 ,1989-08-19 20:14:30.660 ,1,-1,13.3,0.820,0.259,7.170E-02,0.000E+00,0.000E+00,2.843E-02,2.136E-03
1989-08-19T20:14:31.090 ,1989-08-19 20:15:18.280 ,1,1,12.4,0.646,0.389,8.288E-02,0.000E+00,0.000E+00,3.090E-02,1.753E-03
1989-08-19T20:15:19.090 ,1989-08-19 20:16:06.280 ,2,1,13.0,0.663,0.495,9.350E-02,1.064E-02,1.064E-02,2.861E-02,1.672E-03
1989-08-19T20:16:07.090 ,1989-08-19 20:16:54.280 ,3,1,12.4,0.647,0.354,7.905E-02,0.000E+00,0.000E+00,3.106E-02,1.743E-03
1989-08-19T20:16:55.090 ,1989-08-19 20:17:42.280 ,4,1,11.2,0.614,0.336,7.704E-02,0.000E+00,0.000E+00,3.185E-02,1.767E-03
1989-08-19T20:17:43.090 ,1989-08-19 20:18:30.280 ,5,1,12.5,0.649,0.194,5.861E-02,1.064E-02,1.064E-02,2.807E-02,1.715E-03
1989-08-19T20:18:31.090 ,1989-08-19 20:19:18.280 ,6,1,12.0,0.638,0.460,9.013E-02,3.192E-02,1.843E-02,3.114E-02,1.776E-03
1989-08-19T20:19:19.090 ,1989-08-19 20:20:06.280 ,7,1,12.5,0.649,0.283,7.071E-02,1.064E-02,1.064E-02,2.931E-02,1.708E-03
1989-08-19T20:20:07.090 ,1989-08-19 20:20:47.840 ,8,1,12.9,0.716,0.278,7.439E-02,1.064E-02,1.064E-02,3.023E-02,1.904E-03
1989-08-19T20:20:47.910 ,1989-08-19 20:21:11.910 ,9,0,11.9,1.77,0.636,0.318,-1.00,-1.00,3.180E-02,4.790E-03
1989-08-19T20:21:35.910 ,1989-08-19 20:21:42.280 ,8,-1,13.4,1.88,0.477,0.276,-1.00,-1.00,2.530E-02,4.273E-03
1989-08-19T20:21:43.090 ,1989-08-19 20:22:30.280 ,7,-1,12.8,0.664,0.583,0.102,0.000E+00,0.000E+00,3.101E-02,1.803E-03
1989-08-19T20:22:31.090 ,1989-08-19 20:23:18.280 ,6,-1,12.9,0.662,0.424,8.658E-02,1.064E-02,1.064E-02,3.124E-02,1.777E-03
1989-08-19T20:23:19.090 ,1989-08-19 20:24:06.280 ,5,-1,12.9,0.658,0.407,8.475E-02,2.128E-02,1.505E-02,3.048E-02,1.724E-03
1989-08-19T20:24:07.090 ,1989-08-19 20:24:54.280 ,4,-1,12.0,0.643,0.318,7.497E-02,0.000E+00,0.000E+00,3.053E-02,1.756E-03
1989-08-19T20:24:55.090 ,1989-08-19 20:25:42.280 ,3,-1,11.5,0.623,0.371,8.097E-02,0.000E+00,0.000E+00,3.302E-02,1.796E-03
1989-08-19T20:25:43.090 ,1989-08-19 20:26:30.280 ,2,-1,11.7,0.629,0.424,8.658E-02,0.000E+00,0.000E+00,2.662E-02,1.626E-03
1989-08-19T20:26:30.280 ,1989-08-19 20:27:18.650 ,1,-1,14.6,0.876,0.398,8.893E-02,0.000E+00,0.000E+00,2.859E-02,2.140E-03
1989-08-19T20:27:19.090 ,1989-08-19 20:28:06.280 ,1,1,12.7,0.655,0.371,8.097E-02,0.000E+00,0.000E+00,2.952E-02,1.730E-03
1989-08-19T20:28:07.090 ,1989-08-19 20:28:54.280 ,2,1,12.0,0.638,0.283,7.071E-02,0.000E+00,0.000E+00,2.971E-02,1.717E-03
1989-08-19T20:28:55.090 ,1989-08-19 20:29:42.280 ,3,1,12.7,0.654,0.230,6.374E-02,2.128E-02,1.505E-02,2.582E-02,1.602E-03
1989-08-19T20:29:43.090 ,1989-08-19 20:30:30.280 ,4,1,13.1,0.663,0.354,7.905E-02,0.000E+00,0.000E+00,2.871E-02,1.704E-03
1989-08-19T20:30:31.090 ,1989-08-19 20:31:18.280 ,5,1,11.9,0.642,0.318,7.497E-02,1.064E-02,1.064E-02,2.839E-02,1.708E-03
1989-08-19T20:31:19.090 ,1989-08-19 20:32:06.280 ,6,1,11.9,0.643,0.212,6.122E-02,0.000E+00,0.000E+00,3.205E-02,1.803E-03
1989-08-19T20:32:07.090 ,1989-08-19 20:32:54.280 ,7,1,13.5,0.693,0.354,7.905E-02,0.000E+00,0.000E+00,2.901E-02,1.700E-03
1989-08-19T20:32:55.090 ,1989-08-19 20:33:59.840 ,8,1,14.0,0.590,0.358,6.885E-02,1.064E-02,1.064E-02,3.054E-02,1.503E-03
1989-08-19T20:33:59.900 ,1989-08-19 20:34:30.280 ,8,-1,12.0,0.795,0.371,9.919E-02,0.000E+00,0.000E+00,3.134E-02,2.179E-03
1989-08-19T20:34:31.090 ,1989-08-19 20:35:18.280 ,7,-1,13.6,0.677,0.230,6.374E-02,0.000E+00,0.000E+00,3.170E-02,1.773E-03
1989-08-19T20:35:19.090 ,1989-08-19 20:36:06.280 ,6,-1,13.1,0.664,0.283,7.071E-02,0.000E+00,0.000E+00,3.030E-02,1.738E-03
1989-08-19T20:36:07.090 ,1989-08-19 20:36:54.280 ,5,-1,11.9,0.642,0.619,0.105,0.000E+00,0.000E+00,3.130E-02,1.766E-03
1989-08-19T20:36:55.090 ,1989-08-19 20:37:42.280 ,4,-1,11.9,0.634,0.389,8.288E-02,2.128E-02,1.505E-02,3.023E-02,1.748E-03
1989-08-19T20:37:43.090 ,1989-08-19 20:38:30.280 ,3,-1,10.9,0.622,0.301,7.288E-02,1.064E-02,1.064E-02,3.286E-02,1.823E-03
1989-08-19T20:38:31.090 ,1989-08-19 20:39:18.280 ,2,-1,13.2,0.674,0.371,8.097E-02,0.000E+00,0.000E+00,3.028E-02,1.722E-03
1989-08-19T20:39:18.280 ,1989-08-19 20:40:06.650 ,1,-1,13.1,0.847,0.259,7.170E-02,1.064E-02,1.064E-02,2.860E-02,2.083E-03
1989-08-19T20:40:07.090 ,1989-08-19 20:40:54.280 ,1,1,12.3,0.653,0.212,6.122E-02,0.000E+00,0.000E+00,2.891E-02,1.694E-03
1989-08-19T20:40:55.090 ,1989-08-19 20:41:42.280 ,2,1,12.0,0.638,0.407,8.475E-02,2.128E-02,1.505E-02,3.116E-02,1.743E-03
1989-08-19T20:41:43.090 ,1989-08-19 20:42:30.280 ,3,1,12.6,0.652,0.283,7.071E-02,2.128E-02,1.505E-02,3.349E-02,1.826E-03
1989-08-19T20:42:31.090 ,1989-08-19 20:43:18.280 ,4,1,12.8,0.658,0.354,7.905E-02,1.064E-02,1.064E-02,3.118E-02,1.793E-03
1989-08-19T20:43:19.090 ,1989-08-19 20:44:06.280 ,5,1,11.9,0.634,0.371,8.097E-02,1.064E-02,1.064E-02,3.013E-02,1.746E-03
1989-08-19T20:44:07.090 ,1989-08-19 20:44:54.280 ,6,1,13.3,0.669,0.318,7.497E-02,1.064E-02,1.064E-02,3.106E-02,1.743E-03
1989-08-19T20:44:55.090 ,1989-08-19 20:45:42.280 ,7,1,12.5,0.649,0.283,7.071E-02,1.064E-02,1.064E-02,3.136E-02,1.749E-03
1989-08-19T20:45:43.090 ,1989-08-19 20:46:47.840 ,8,1,12.6,0.559,0.384,7.137E-02,0.000E+00,0.000E+00,2.928E-02,1.473E-03
1989-08-19T20:46:47.900 ,1989-08-19 20:47:18.280 ,8,-1,12.9,0.824,0.212,7.497E-02,0.000E+00,0.000E+00,3.241E-02,2.218E-03
1989-08-19T20:47:19.090 ,1989-08-19 20:48:06.280 ,7,-1,14.1,0.688,0.318,7.497E-02,1.064E-02,1.064E-02,2.860E-02,1.716E-03
1989-08-19T20:48:07.090 ,1989-08-19 20:48:54.280 ,6,-1,11.9,0.634,0.336,7.704E-02,1.064E-02,1.064E-02,2.850E-02,1.697E-03
1989-08-19T20:48:55.090 ,1989-08-19 20:49:42.280 ,5,-1,12.9,0.660,0.460,9.013E-02,1.064E-02,1.064E-02,3.204E-02,1.767E-03
1989-08-19T20:49:43.090 ,1989-08-19 20:50:30.280 ,4,-1,11.8,0.632,0.389,8.288E-02,0.000E+00,0.000E+00,3.053E-02,1.756E-03
1989-08-19T20:50:31.090 ,1989-08-19 20:51:18.280 ,3,-1,11.9,0.643,0.371,8.097E-02,1.064E-02,1.064E-02,3.236E-02,1.810E-03
1989-08-19T20:51:19.090 ,1989-08-19 20:52:06.280 ,2,-1,11.8,0.640,0.495,9.350E-02,0.000E+00,0.000E+00,2.871E-02,1.691E-03
1989-08-19T20:52:06.280 ,1989-08-19 20:52:54.650 ,1,-1,12.4,0.808,0.179,5.965E-02,0.000E+00,0.000E+00,3.064E-02,2.102E-03
1989-08-19T20:52:55.090 ,1989-08-19 20:53:42.280 ,1,1,12.6,0.661,0.477,9.180E-02,0.000E+00,0.000E+00,2.881E-02,1.693E-03
1989-08-19T20:53:43.090 ,1989-08-19 20:54:30.280 ,2,1,10.9,0.613,0.318,7.497E-02,0.000E+00,0.000E+00,3.007E-02,1.776E-03
1989-08-19T20:54:31.090 ,1989-08-19 20:54:47.840 ,3,1,12.4,1.08,0.159,9.185E-02,-1.00,-1.00,2.949E-02,2.916E-03
1989-08-19T20:54:47.900 ,1989-08-19 20:55:11.900 ,9,0,13.4,0.963,0.398,0.126,1.064E-02,1.064E-02,3.848E-02,2.766E-03
1989-08-19T20:55:40.700 ,1989-08-19 20:56:04.700 ,9,0,13.7,1.13,0.438,0.132,0.000E+00,0.000E+00,3.029E-02,2.887E-03
1989-08-19T20:55:59.900 ,1989-08-19 20:56:06.280 ,4,1,16.1,2.06,0.000E+00,0.000E+00,-1.00,-1.00,3.830E-02,5.261E-03
1989-08-19T20:56:07.090 ,1989-08-19 20:56:54.280 ,5,1,11.4,0.718,0.250,7.535E-02,-1.00,-1.00,3.180E-02,2.042E-03
1989-08-19T20:56:55.090 ,1989-08-19 20:57:42.280 ,6,1,11.7,0.636,0.230,6.374E-02,1.064E-02,1.064E-02,3.050E-02,1.740E-03
1989-08-19T20:57:43.090 ,1989-08-19 20:58:30.280 ,7,1,13.4,0.673,0.442,8.839E-02,0.000E+00,0.000E+00,3.160E-02,1.773E-03
1989-08-19T20:58:31.090 ,1989-08-19 20:59:35.840 ,8,1,12.4,0.560,0.278,6.073E-02,1.064E-02,1.064E-02,3.024E-02,1.493E-03
1989-08-19T20:59:35.900 ,1989-08-19 20:00:06.280 ,8,-1,14.0,0.858,0.424,0.106,1.064E-02,1.064E-02,3.028E-02,2.143E-03
1989-08-19T21:00:07.090 ,1989-08-19 21:00:54.280 ,7,-1,13.9,0.684,0.194,5.861E-02,3.192E-02,1.843E-02,3.236E-02,1.810E-03
1989-08-19T21:00:55.090 ,1989-08-19 21:01:42.280 ,6,-1,13.1,0.664,0.389,8.288E-02,1.064E-02,1.064E-02,3.053E-02,1.756E-03
1989-08-19T21:01:43.090 ,1989-08-19 21:02:30.280 ,5,-1,11.8,0.631,0.230,6.374E-02,3.192E-02,1.843E-02,2.849E-02,1.727E-03
1989-08-19T21:02:31.090 ,1989-08-19 21:03:18.280 ,4,-1,12.0,0.643,0.389,8.288E-02,0.000E+00,0.000E+00,2.973E-02,1.752E-03
1989-08-19T21:03:19.090 ,1989-08-19 21:04:06.280 ,3,-1,13.3,0.679,0.318,7.497E-02,2.128E-02,1.505E-02,3.215E-02,1.804E-03
1989-08-19T21:04:07.090 ,1989-08-19 21:04:54.280 ,2,-1,12.2,0.641,0.283,7.071E-02,1.064E-02,1.064E-02,3.283E-02,1.837E-03
1989-08-19T21:04:54.280 ,1989-08-19 21:05:42.650 ,1,-1,14.3,0.867,0.398,8.893E-02,1.064E-02,1.064E-02,2.573E-02,1.926E-03
1989-08-19T21:05:43.090 ,1989-08-19 21:06:30.280 ,1,1,12.3,0.644,0.177,5.588E-02,0.000E+00,0.000E+00,3.297E-02,1.829E-03
1989-08-19T21:06:31.090 ,1989-08-19 21:07:18.280 ,2,1,11.5,0.623,0.371,8.097E-02,0.000E+00,0.000E+00,2.962E-02,1.731E-03
1989-08-19T21:07:19.090 ,1989-08-19 21:08:06.280 ,3,1,13.0,0.663,0.283,7.071E-02,0.000E+00,0.000E+00,3.136E-02,1.749E-03
1989-08-19T21:08:07.090 ,1989-08-19 21:08:54.280 ,4,1,12.1,0.637,0.442,8.839E-02,1.064E-02,1.064E-02,2.901E-02,1.713E-03
1989-08-19T21:08:55.090 ,1989-08-19 21:09:42.280 ,5,1,12.2,0.643,0.389,8.288E-02,0.000E+00,0.000E+00,3.120E-02,1.760E-03
1989-08-19T21:09:43.090 ,1989-08-19 21:10:30.280 ,6,1,13.6,0.677,0.283,7.071E-02,0.000E+00,0.000E+00,3.459E-02,1.870E-03
1989-08-19T21:10:31.090 ,1989-08-19 21:11:18.280 ,7,1,13.3,0.669,0.336,7.704E-02,0.000E+00,0.000E+00,3.195E-02,1.767E-03
1989-08-19T21:11:19.090 ,1989-08-19 21:12:23.840 ,8,1,13.5,0.579,0.305,6.356E-02,1.064E-02,1.064E-02,3.116E-02,1.529E-03
1989-08-19T21:12:23.900 ,1989-08-19 21:12:54.280 ,8,-1,12.2,0.803,0.371,9.919E-02,1.064E-02,1.064E-02,3.016E-02,2.168E-03
1989-08-19T21:12:55.090 ,1989-08-19 21:13:42.280 ,7,-1,14.3,0.693,0.424,8.658E-02,2.128E-02,1.505E-02,3.120E-02,1.760E-03
1989-08-19T21:13:43.090 ,1989-08-19 21:14:30.280 ,6,-1,12.3,0.644,0.318,7.497E-02,1.064E-02,1.064E-02,3.246E-02,1.811E-03
1989-08-19T21:14:31.090 ,1989-08-19 21:15:18.280 ,5,-1,13.0,0.673,0.354,7.905E-02,1.064E-02,1.064E-02,2.973E-02,1.752E-03
1989-08-19T21:15:19.090 ,1989-08-19 21:16:06.280 ,4,-1,12.9,0.668,0.407,8.475E-02,1.064E-02,1.064E-02,3.023E-02,1.748E-03
1989-08-19T21:16:07.090 ,1989-08-19 21:16:54.280 ,3,-1,11.7,0.627,0.336,7.704E-02,0.000E+00,0.000E+00,2.769E-02,1.674E-03
1989-08-19T21:16:55.090 ,1989-08-19 21:17:42.280 ,2,-1,13.1,0.664,0.407,8.475E-02,2.128E-02,1.505E-02,2.781E-02,1.664E-03
1989-08-19T21:17:42.280 ,1989-08-19 21:18:30.650 ,1,-1,13.2,0.816,0.358,8.435E-02,0.000E+00,0.000E+00,3.058E-02,2.155E-03
1989-08-19T21:18:31.090 ,1989-08-19 21:19:18.280 ,1,1,12.0,0.636,0.424,8.658E-02,0.000E+00,0.000E+00,2.715E-02,1.629E-03
1989-08-19T21:19:19.090 ,1989-08-19 21:20:06.280 ,2,1,12.8,0.664,0.389,8.288E-02,1.064E-02,1.064E-02,2.791E-02,1.666E-03
1989-08-19T21:20:07.090 ,1989-08-19 21:20:54.280 ,3,1,12.5,0.649,0.354,7.905E-02,1.064E-02,1.064E-02,3.120E-02,1.760E-03
1989-08-19T21:20:55.090 ,1989-08-19 21:21:42.280 ,4,1,11.4,0.636,0.424,8.658E-02,3.192E-02,1.843E-02,3.165E-02,1.761E-03
1989-08-19T21:21:43.090 ,1989-08-19 21:22:30.280 ,5,1,10.8,0.610,0.318,7.497E-02,2.128E-02,1.505E-02,3.220E-02,1.791E-03
1989-08-19T21:22:31.090 ,1989-08-19 21:23:18.280 ,6,1,12.0,0.638,0.230,6.374E-02,1.064E-02,1.064E-02,2.984E-02,1.753E-03
1989-08-19T21:23:19.090 ,1989-08-19 21:24:06.280 ,7,1,12.7,0.656,0.265,6.844E-02,0.000E+00,0.000E+00,3.286E-02,1.823E-03
1989-08-19T21:24:07.090 ,1989-08-19 21:25:11.840 ,8,1,13.6,0.586,0.438,7.616E-02,2.128E-02,1.505E-02,3.110E-02,1.507E-03
1989-08-19T21:25:11.900 ,1989-08-19 21:25:42.280 ,8,-1,13.4,0.841,0.345,9.560E-02,1.064E-02,1.064E-02,3.000E-02,2.161E-03
1989-08-19T21:25:43.090 ,1989-08-19 21:26:30.270 ,7,-1,14.2,0.691,0.336,7.704E-02,0.000E+00,0.000E+00,3.293E-02,1.796E-03
1989-08-19T21:26:31.090 ,1989-08-19 21:27:18.270 ,6,-1,12.7,0.665,0.301,7.288E-02,0.000E+00,0.000E+00,3.020E-02,1.732E-03
1989-08-19T21:27:19.090 ,1989-08-19 21:28:06.270 ,5,-1,11.9,0.660,0.336,7.704E-02,0.000E+00,0.000E+00,3.110E-02,1.759E-03
1989-08-19T21:28:07.090 ,1989-08-19 21:28:54.270 ,4,-1,12.3,0.669,0.318,7.497E-02,1.064E-02,1.064E-02,3.087E-02,1.736E-03
1989-08-19T21:28:55.090 ,1989-08-19 21:29:42.270 ,3,-1,12.9,0.668,0.301,7.288E-02,0.000E+00,0.000E+00,3.130E-02,1.766E-03
1989-08-19T21:29:43.090 ,1989-08-19 21:30:30.270 ,2,-1,12.1,0.639,0.336,7.704E-02,1.064E-02,1.064E-02,2.773E-02,1.647E-03
1989-08-19T21:30:30.270 ,1989-08-19 21:31:18.650 ,1,-1,11.9,0.790,0.298,7.700E-02,0.000E+00,0.000E+00,3.079E-02,2.107E-03
1989-08-19T21:31:19.090 ,1989-08-19 21:32:06.270 ,1,1,12.5,0.651,0.283,7.071E-02,0.000E+00,0.000E+00,2.950E-02,1.696E-03
1989-08-19T21:32:07.090 ,1989-08-19 21:32:54.270 ,2,1,11.8,0.632,0.371,8.097E-02,0.000E+00,0.000E+00,3.087E-02,1.736E-03
1989-08-19T21:32:55.090 ,1989-08-19 21:33:42.270 ,3,1,11.8,0.631,0.247,6.612E-02,0.000E+00,0.000E+00,2.777E-02,1.692E-03
1989-08-19T21:33:43.090 ,1989-08-19 21:34:30.270 ,4,1,13.4,0.682,0.283,7.071E-02,1.064E-02,1.064E-02,3.002E-02,1.740E-03
1989-08-19T21:34:31.090 ,1989-08-19 21:35:18.270 ,5,1,12.9,0.660,0.247,6.612E-02,2.128E-02,1.505E-02,2.996E-02,1.774E-03
1989-08-19T21:35:19.090 ,1989-08-19 21:36:06.270 ,6,1,12.8,0.664,0.460,9.013E-02,0.000E+00,0.000E+00,3.118E-02,1.793E-03
1989-08-19T21:36:07.090 ,1989-08-19 21:36:23.840 ,7,1,12.0,1.06,0.318,0.130,-1.00,-1.00,3.359E-02,3.039E-03
1989-08-19T21:36:23.900 ,1989-08-19 21:36:47.900 ,9,0,13.0,0.950,0.278,0.105,0.000E+00,0.000E+00,2.831E-02,2.375E-03
1989-08-19T21:37:14.300 ,1989-08-19 21:37:38.300 ,9,0,13.7,1.00,0.255,8.997E-02,0.000E+00,0.000E+00,3.041E-02,2.551E-03
1989-08-19T21:37:35.900 ,1989-08-19 21:37:59.840 ,8,0,13.1,0.953,0.318,0.112,-1.00,-1.00,2.684E-02,2.353E-03
1989-08-19T21:37:59.900 ,1989-08-19 21:38:30.270 ,8,-1,12.5,0.811,0.186,7.013E-02,1.064E-02,1.064E-02,3.328E-02,2.278E-03
1989-08-19T21:38:31.090 ,1989-08-19 21:39:18.270 ,7,-1,13.1,0.672,0.336,7.704E-02,1.064E-02,1.064E-02,3.056E-02,1.772E-03
1989-08-19T21:39:19.090 ,1989-08-19 21:40:06.270 ,6,-1,12.7,0.665,0.424,8.658E-02,1.064E-02,1.064E-02,2.777E-02,1.692E-03
1989-08-19T21:40:07.090 ,1989-08-19 21:40:54.270 ,5,-1,11.7,0.636,0.283,7.071E-02,2.128E-02,1.505E-02,3.266E-02,1.817E-03
1989-08-19T21:40:55.090 ,1989-08-19 21:41:42.270 ,4,-1,11.5,0.630,0.442,8.839E-02,0.000E+00,0.000E+00,2.838E-02,1.725E-03
1989-08-19T21:41:43.090 ,1989-08-19 21:42:30.270 ,3,-1,12.4,0.654,0.389,8.288E-02,0.000E+00,0.000E+00,3.120E-02,1.760E-03
1989-08-19T21:42:31.090 ,1989-08-19 21:43:18.270 ,2,-1,12.5,0.666,0.247,6.612E-02,0.000E+00,0.000E+00,2.828E-02,1.723E-03
1989-08-19T21:43:18.270 ,1989-08-19 21:44:06.650 ,1,-1,13.7,0.832,0.378,8.667E-02,0.000E+00,0.000E+00,3.039E-02,2.118E-03
1989-08-19T21:44:07.090 ,1989-08-19 21:44:23.840 ,1,1,13.5,1.13,0.212,0.106,-1.00,-1.00,3.084E-02,2.910E-03
1989-08-19T21:44:23.900 ,1989-08-19 21:44:47.900 ,9,0,12.6,0.935,0.239,9.740E-02,1.064E-02,1.064E-02,3.150E-02,2.505E-03
1989-08-19T21:49:07.100 ,1989-08-19 21:49:31.100 ,9,0,11.9,1.98,0.318,0.225,-1.00,-1.00,4.625E-02,6.671E-03
1989-08-19T21:49:11.900 ,1989-08-19 21:49:35.900 ,9,0,13.1,0.926,0.414,0.115,4.256E-02,2.128E-02,3.026E-02,2.411E-03
1989-08-19T21:49:35.900 ,1989-08-19 21:49:59.900 ,9,0,51.1,1.99,0.382,0.110,0.000E+00,0.000E+00,3.164E-02,2.551E-03
1989-08-19T21:49:59.900 ,1989-08-19 21:50:23.900 ,9,0,53.6,1.97,0.382,0.110,2.128E-02,1.505E-02,3.180E-02,2.559E-03
1989-08-19T21:50:23.900 ,1989-08-19 21:50:47.840 ,8,0,12.2,0.970,0.199,8.893E-02,-1.00,-1.00,3.004E-02,2.582E-03
1989-08-19T21:50:47.900 ,1989-08-19 21:51:11.900 ,9,0,14.3,1.25,0.371,0.140,0.000E+00,0.000E+00,3.256E-02,3.144E-03
1989-08-19T21:51:04.100 ,1989-08-19 21:51:28.100 ,9,0,12.2,1.52,0.477,0.195,-1.00,-1.00,3.353E-02,4.401E-03
1989-08-19T21:51:11.900 ,1989-08-19 21:51:18.270 ,8,-1,11.3,1.73,0.318,0.225,-1.00,-1.00,2.963E-02,4.625E-03
1989-08-19T21:51:19.090 ,1989-08-19 21:52:06.270 ,7,-1,14.5,0.709,0.442,8.839E-02,1.064E-02,1.064E-02,3.325E-02,1.849E-03
1989-08-19T21:52:07.080 ,1989-08-19 21:52:54.270 ,6,-1,13.0,0.663,0.389,8.288E-02,0.000E+00,0.000E+00,2.982E-02,1.738E-03
1989-08-19T21:52:55.080 ,1989-08-19 21:53:42.270 ,5,-1,12.7,0.655,0.354,7.905E-02,3.192E-02,1.843E-02,2.861E-02,1.685E-03
1989-08-19T21:53:43.080 ,1989-08-19 21:54:30.270 ,4,-1,12.6,0.650,0.389,8.288E-02,0.000E+00,0.000E+00,2.994E-02,1.754E-03
1989-08-19T21:54:31.080 ,1989-08-19 21:55:18.270 ,3,-1,12.1,0.639,0.354,7.905E-02,1.064E-02,1.064E-02,3.244E-02,1.779E-03
1989-08-19T21:55:19.080 ,1989-08-19 21:56:06.270 ,2,-1,12.4,0.646,0.318,7.497E-02,1.064E-02,1.064E-02,3.175E-02,1.761E-03
1989-08-19T21:56:06.270 ,1989-08-19 21:56:54.650 ,1,-1,14.0,0.858,0.239,6.887E-02,1.064E-02,1.064E-02,2.843E-02,2.136E-03
1989-08-19T21:56:55.080 ,1989-08-19 21:57:42.270 ,1,1,12.5,0.666,0.460,9.013E-02,0.000E+00,0.000E+00,3.220E-02,1.791E-03
1989-08-19T21:57:43.080 ,1989-08-19 21:58:30.270 ,2,1,11.9,0.649,0.407,8.475E-02,0.000E+00,0.000E+00,3.040E-02,1.739E-03
1989-08-19T21:58:31.080 ,1989-08-19 21:59:18.270 ,3,1,13.0,0.661,0.389,8.288E-02,0.000E+00,0.000E+00,2.788E-02,1.694E-03
1989-08-19T21:59:19.080 ,1989-08-19 21:00:06.270 ,4,1,14.2,0.692,0.371,8.097E-02,0.000E+00,0.000E+00,3.040E-02,1.739E-03
1989-08-19T22:00:07.080 ,1989-08-19 22:00:54.270 ,5,1,12.9,0.660,0.424,8.658E-02,3.192E-02,1.843E-02,3.033E-02,1.753E-03
1989-08-19T22:00:55.080 ,1989-08-19 22:01:41.830 ,6,1,12.4,0.654,0.283,7.071E-02,2.128E-02,1.505E-02,2.860E-02,1.716E-03
1989-08-19T22:01:42.270 ,1989-08-19 22:01:59.830 ,7,1,15.1,1.19,0.212,0.106,-1.00,-1.00,2.863E-02,2.805E-03
1989-08-19T22:01:59.900 ,1989-08-19 22:02:23.900 ,9,0,12.0,1.02,0.318,0.112,0.000E+00,0.000E+00,2.690E-02,2.597E-03
1989-08-19T22:02:18.500 ,1989-08-19 22:02:42.500 ,9,0,12.7,1.83,0.000E+00,0.000E+00,-1.00,-1.00,2.726E-02,4.744E-03
1989-08-19T22:02:23.900 ,1989-08-19 22:02:30.270 ,7,1,9.49,1.58,0.318,0.225,-1.00,-1.00,4.120E-02,5.452E-03
1989-08-19T22:02:31.080 ,1989-08-19 22:03:35.830 ,8,1,12.6,0.558,0.305,6.356E-02,0.000E+00,0.000E+00,2.884E-02,1.451E-03
1989-08-19T22:03:35.900 ,1989-08-19 22:04:06.270 ,8,-1,12.8,0.821,0.265,8.382E-02,1.064E-02,1.064E-02,2.860E-02,2.113E-03
1989-08-19T22:04:07.080 ,1989-08-19 22:04:54.270 ,7,-1,13.6,0.687,0.283,7.071E-02,3.192E-02,1.843E-02,3.126E-02,1.749E-03
1989-08-19T22:04:55.080 ,1989-08-19 22:05:42.270 ,6,-1,12.7,0.656,0.230,6.374E-02,0.000E+00,0.000E+00,2.759E-02,1.673E-03
1989-08-19T22:05:43.080 ,1989-08-19 22:06:30.270 ,5,-1,12.9,0.668,0.318,7.497E-02,2.128E-02,1.505E-02,3.018E-02,1.717E-03
1989-08-19T22:06:31.080 ,1989-08-19 22:07:18.270 ,4,-1,12.1,0.637,0.371,8.097E-02,2.128E-02,1.505E-02,3.180E-02,1.779E-03
1989-08-19T22:07:19.080 ,1989-08-19 22:08:06.270 ,3,-1,12.7,0.654,0.371,8.097E-02,0.000E+00,0.000E+00,3.214E-02,1.773E-03
1989-08-19T22:08:07.080 ,1989-08-19 22:08:54.270 ,2,-1,12.7,0.654,0.424,8.658E-02,0.000E+00,0.000E+00,3.190E-02,1.814E-03
1989-08-19T22:08:54.270 ,1989-08-19 22:09:42.650 ,1,-1,11.1,0.763,0.259,7.170E-02,1.064E-02,1.064E-02,3.194E-02,2.146E-03
1989-08-19T22:09:43.080 ,1989-08-19 22:10:30.270 ,1,1,11.8,0.631,0.318,7.497E-02,2.128E-02,1.505E-02,3.332E-02,1.807E-03
1989-08-19T22:10:31.080 ,1989-08-19 22:11:18.270 ,2,1,11.0,0.610,0.354,7.905E-02,1.064E-02,1.064E-02,3.080E-02,1.752E-03
1989-08-19T22:11:19.080 ,1989-08-19 22:12:06.270 ,3,1,11.3,0.626,0.336,7.704E-02,0.000E+00,0.000E+00,3.108E-02,1.787E-03
1989-08-19T22:12:07.080 ,1989-08-19 22:12:54.270 ,4,1,11.6,0.632,0.424,8.658E-02,0.000E+00,0.000E+00,3.234E-02,1.779E-03
1989-08-19T22:12:55.080 ,1989-08-19 22:13:42.270 ,5,1,13.9,0.703,0.283,7.071E-02,1.064E-02,1.064E-02,2.999E-02,1.710E-03
1989-08-19T22:13:43.080 ,1989-08-19 22:14:30.270 ,6,1,13.9,0.686,0.265,6.844E-02,1.064E-02,1.064E-02,3.097E-02,1.786E-03
1989-08-19T22:14:31.080 ,1989-08-19 22:15:18.270 ,7,1,13.8,0.692,0.336,7.704E-02,1.064E-02,1.064E-02,2.961E-02,1.716E-03
1989-08-19T22:15:19.080 ,1989-08-19 22:16:23.830 ,8,1,13.4,0.577,0.318,6.493E-02,1.064E-02,1.064E-02,3.115E-02,1.499E-03
1989-08-19T22:16:23.900 ,1989-08-19 22:16:54.270 ,8,-1,13.8,0.852,0.292,8.791E-02,1.064E-02,1.064E-02,3.344E-02,2.283E-03
1989-08-19T22:16:55.080 ,1989-08-19 22:17:42.270 ,7,-1,13.7,0.680,0.424,8.658E-02,1.064E-02,1.064E-02,2.881E-02,1.679E-03
1989-08-19T22:17:43.080 ,1989-08-19 22:18:30.270 ,6,-1,12.1,0.639,0.283,7.071E-02,0.000E+00,0.000E+00,3.283E-02,1.790E-03
1989-08-19T22:18:31.080 ,1989-08-19 22:19:18.270 ,5,-1,12.3,0.644,0.230,6.374E-02,0.000E+00,0.000E+00,3.195E-02,1.797E-03
1989-08-19T22:19:19.080 ,1989-08-19 22:20:06.270 ,4,-1,12.8,0.657,0.336,7.704E-02,1.064E-02,1.064E-02,3.379E-02,1.832E-03
1989-08-19T22:20:07.080 ,1989-08-19 22:20:54.270 ,3,-1,12.5,0.649,0.424,8.658E-02,0.000E+00,0.000E+00,2.773E-02,1.647E-03
1989-08-19T22:20:55.080 ,1989-08-19 22:21:42.270 ,2,-1,13.7,0.680,0.247,6.612E-02,0.000E+00,0.000E+00,2.911E-02,1.715E-03
1989-08-19T22:21:42.270 ,1989-08-19 22:22:30.650 ,1,-1,12.9,0.807,0.239,6.887E-02,0.000E+00,0.000E+00,3.209E-02,2.151E-03
1989-08-19T22:22:31.080 ,1989-08-19 22:23:18.270 ,1,1,11.4,0.621,0.194,5.861E-02,0.000E+00,0.000E+00,2.860E-02,1.703E-03
1989-08-19T22:23:19.080 ,1989-08-19 22:24:06.270 ,2,1,11.4,0.620,0.177,5.588E-02,0.000E+00,0.000E+00,2.911E-02,1.701E-03